Location: Allos
(44.2333°N, 6.6333°E)
Time: 12:36:59
(UTC+00:00)

SKYMED 3 - Pass Details

Date: 01 December 2020
Orbit: 621 x 623 km, 97.9° (Epoch: 26 January)

Event Time Altitude Azimuth Distance (km) Brightness Sun altitude
Exits shadow 17:46:23 16° 13° (NNE) 1,622 6.4 -19.2°
Maximum altitude 17:49:49 89° 108° (ESE) 630 4.5 -19.8°
Drops below altitude 10° 17:54:09 10° 194° (SSW) 1,989 7.5 -20.6°
Sets 17:56:19 0° 195° (SSW) 2,890 8.3 -21.0°
